Location: The Saddle
(36.8333°N, 80.3417°W)
Time: 04:59:01
(UTC-04:00)

Tiros 1 - Pass Details

Date: 31 January 2022
Orbit: 630 x 663 km, 48.4° (Epoch: 29 May)

Event Time Altitude Azimuth Distance (km) Brightness Sun altitude
Rises 18:43:35 0° 198° (SSW) 2,961 11.0 -11.9°
Reaches altitude 10° 18:46:19 10° 184° (S) 2,059 9.9 -12.4°
Maximum altitude 18:50:01 23° 132° (SE) 1,402 8.6 -13.1°
Enters shadow 18:51:52 18° 100° (E) 1,597 8.6 -13.5°
